Terug naar catalogus

STARLINK-34474

ActiefCommunicatieVLEO
NORAD 64474·PAYLOAD·🇺🇸 United States

Gelanceerd Jun 23, 2025 vanaf Cape Canaveral Space Force Station

Loading…

Volgende Passages (komende 24 uur)

TLE

VersSource: CelesTrak SupGP

Epoch: Sep 15, 2026, 02:45 UTC

1 64474C 25133C   26258.11506944  .00049183  00000+0  14529-2 0  2587
2 64474  53.1586 315.1210 0001193  92.3724 351.6605 15.34371424    10

Volg STARLINK-34474 in realtime met AllMySat

Download on the App Store